FENGYUN 1C DEB, 33710

Orbit data source: Space-Track

FENGYUN 1C DEB, 33710 is space debris in SSO originally from a launch on Mon, 10 May 1999 UTC launched from the Taiyaun Space Center, China (TSC). Fengyun 1C debris stems from the Chinese weather satellite Fengyun-1C, which was intentionally destroyed by a Chinese anti-satellite missile in 2007. This event dramatically increased the amount of space debris, with thousands of trackable fragments posing hazards to satellites and human spaceflight. The Fengyun 1C debris cloud has become a focal point in discussions about space sustainability and the need for international regulations to prevent the creation of new debris.

Loading next visibility...
Identifier
33710, 1999-025DGX
Orbit
SSO
Country
Flag of CNCN / PRC
Related business
Manufacturer
Unknown
Mission
Spacecraft
Bus & Motor
Unknown
Mass
Unknown
Launch date (UTC)
1999-05-10 (27 years ago)
Launch vehicle
Unknown
Launch site
Taiyaun Space Center, China (TSC)
Object type
Payload
Rocket body
Debris
Shape & HBR
Unknown shape, 0.1 m
Radar Cross Section
Small (<0.1 m²)

Expand to show TLE details & history
Last TLE update: 2 days ago

TLE from 2 days ago
0 FENGYUN 1C DEB
1 33710U 99025DGX 26206.75401460  .00001467  00000-0  80931-3 0  9994
2 33710  98.9823 310.9041 0053879 230.4892 129.1510 14.12390213708328
Epoch: 2026-07-25T18:05Z
TLE epoch observation values (Epoch: 2026-07-25T18:05:46.861Z)
Latitude
0.00003°
Longitude
95.99708°
Altitude
878.822 km
Speed
7.4 km/s
True Right ascension
20h 43m 36s
True Declination
0° 00' 00"
Sunlit
Object was in full shadow at epoch
Visualization orbit readout
Latitude
Unknown
Longitude
Unknown
Altitude
Unknown
Speed
Unknown
Apparent Right ascension
Unknown
Apparent Declination
Unknown
Sunlit
N/A
Visualization observer readout
Local Sidereal Time
20:28:54
Azimuth
Unknown
Elevation
Unknown
Doppler factor
Unknown
Orbital elements
Apogee altitude
887.322 km
Perigee altitude
809.45 km
Semi-major axis
7,226.523 km
Eccentricity
0.00539
Inclination
98.9823°
RAAN
310.9041°
Arg. of periapsis
230.4892°
True anomaly
129.62776°
Mean anomaly
129.151°
Eccentric anomaly
129.38958°
Mean motion
3.53304 °/min
Orbital period
101.9 mins
BSTAR
0.00080931
Loading maneuver chart data...
Computing Atmospheric mass density...

Documentation

Showing up to 5 results
|